Home   Weather   Reykjavik   Past weeks

Flag for Iceland Past Weather in Reykjavik, Iceland — Yesterday and Last 2 Weeks

Now
45 °F

Drizzle. Fog.


Feels Like: 37 °F
Forecast: 39 / 44 °F
Wind: 20 mph from Southeast

Location: Reykjavik Airport

Current Time: Apr 27, 2017 at 9:02:49 am

Latest Report: Apr 27, 2017 at 8:00 am


Visibility: 6 mi

Pressure: 29.83 "Hg

Humidity: 87%

Dew Point: 41 °F

Location of ReykjavikLocation

Past Weather in Reykjavik — Graph

°F

Reykjavik Temperature Yesterday

Maximum temperature yesterday: 48 °F (at 2:00 pm)
Minimum temperature yesterday: 41 °F (at 6:00 am)
Average temperature yesterday: 45 °F

High & Low Weather Summary for the Past Weeks

 TemperatureHumidityPressure
High48 °F (Apr 26, 2:00 pm)93% (Apr 18, 12:00 am)30.63 "Hg (Apr 18, 12:00 am)
Low23 °F (Apr 24, 4:00 am)24% (Apr 16, 6:00 pm)29.65 "Hg (Apr 13, 4:00 pm)
Average36 °F65%30.12 "Hg
* Reported Apr 12 8:00 am — Apr 27 8:00 am, Reykjavik, Weather by CustomWeather, © 2017

Note: Actual official high and low records may vary slightly from our data, if they occured in-between our weather recording intervals... More about our weather records

Advertising

Reykjavik Weather History for the Previous 24 Hours

Scroll right to see more
 ConditionsComfort  
Time TempWeatherWind HumidityBarometerVisibility
8:00 am
Thu, Apr 27
45 °FDrizzle. Fog.20 mph87%29.83 "Hg6 mi
7:00 am45 °FLight rain. Mostly cloudy.17 mph81%29.86 "Hg5 mi
6:00 am45 °FLight rain. Mostly cloudy.14 mph81%29.89 "Hg6 mi
5:00 am45 °FPassing clouds.10 mph81%29.92 "Hg6 mi
4:00 am45 °FOvercast.14 mph81%29.95 "HgN/A
3:00 am45 °FLight rain. Mostly cloudy.13 mph81%29.98 "HgN/A
2:00 am45 °FOvercast.10 mph76%30.01 "HgN/A
1:00 am45 °FMostly cloudy.9 mph71%30.01 "HgN/A
12:00 am45 °FOvercast.9 mph71%30.04 "HgN/A
11:00 pm
Wed, Apr 26
45 °FOvercast.9 mph71%30.07 "HgN/A
10:00 pm45 °FOvercast.10 mph71%30.07 "HgN/A
9:00 pm45 °FSunny.14 mph71%30.07 "Hg10 mi
8:00 pm46 °FPartly sunny.13 mph66%30.09 "HgN/A
7:00 pm46 °FPartly sunny.13 mph66%30.09 "HgN/A
6:00 pm48 °FBroken clouds.16 mph62%30.09 "HgN/A
5:00 pm48 °FBroken clouds.15 mph66%30.09 "HgN/A
4:00 pm48 °FBroken clouds.15 mph66%30.09 "HgN/A
3:00 pm48 °FMore clouds than sun.12 mph71%30.12 "HgN/A
2:00 pm48 °FMostly cloudy.12 mph76%30.12 "HgN/A
1:00 pm46 °FMostly cloudy.12 mph82%30.12 "HgN/A
12:00 pm46 °FFog.14 mph82%30.12 "Hg6 mi
11:00 am45 °FLight rain. Fog.13 mph87%30.12 "Hg4 mi
10:00 am45 °FDrizzle. Fog.12 mph87%30.12 "Hg5 mi
9:00 am45 °FFog.14 mph87%30.12 "Hg6 mi
Weather by CustomWeather, © 2017

See weather overviewHow to use our weather pages